DENNIS TWP. - NJ NJ-MESONET current weather conditions

sailwx.info

Wind from 276 at 10 knots gusting 14

Air temperature 6.7° C
Dewpoint -5.0° C

Last reported at 2019-Dec-05 20:05 UTC.
Time now 2019-Dec-05 20:35 UTC

Location: N 39°12' W 074°54'.
View on Google Maps.

See reports from other nearby stations

  
Tides and Currents Weather Stations Pressure Air Temp Water Temp Dewpoint Dewpoint Depression Visibility Wind Speed Wind Dir Waves Ship Positions
date/time (UTC)wind fromknots sea level pressurealtimeterstation pressurevisibilityair tempwater tempwave heightnotes
2019-Dec-05 20:05 276 10 gusting 14 6.7
2019-Dec-05 20:00 298 5 gusting 16 6.7
2019-Dec-05 19:55 229 10 gusting 18 6.7
2019-Dec-05 19:50 269 10 gusting 18 6.7
2019-Dec-05 19:45 293 4 gusting 17 6.7
2019-Dec-05 19:40 280 9 gusting 16 6.7
2019-Dec-05 19:35 290 9 gusting 16 6.7
2019-Dec-05 19:30 252 11 gusting 19 6.1
2019-Dec-05 19:25 273 9 gusting 20 6.1
2019-Dec-05 19:20 251 14 gusting 20 6.7
2019-Dec-05 19:15 324 13 gusting 24 6.7
2019-Dec-05 19:10 347 13 gusting 19 7.2
2019-Dec-05 19:05 304 14 gusting 21 6.7
2019-Dec-05 19:00 258 13 gusting 22 6.7
2019-Dec-05 18:55 269 19 gusting 22 6.7
2019-Dec-05 18:50 284 8 gusting 15 6.7
2019-Dec-05 18:45 290 8 gusting 16 6.1
2019-Dec-05 18:40 315 18 gusting 23 6.1
2019-Dec-05 18:35 264 14 gusting 24 6.1
2019-Dec-05 18:30 285 11 gusting 24 6.1
2019-Dec-05 18:25 270 15 gusting 22 6.7
2019-Dec-05 18:20 321 8 gusting 13 7.2
2019-Dec-05 18:15 318 12 gusting 24 6.7
2019-Dec-05 18:10 273 19 gusting 27 6.7
2019-Dec-05 18:05 312 11 gusting 17 7.2
2019-Dec-05 18:00 280 13 gusting 18 6.7
2019-Dec-05 17:55 273 13 gusting 14 6.1
2019-Dec-05 17:50 274 9 gusting 17 5.6
2019-Dec-05 17:45 278 14 gusting 18 5.6
2019-Dec-05 17:40 278 12 gusting 19 5.6
2019-Dec-05 17:35 286 10 gusting 18 5.6
2019-Dec-05 17:30 268 6 gusting 14 5.6
2019-Dec-05 17:25 263 9 gusting 20 5.6
2019-Dec-05 17:20 273 18 gusting 20 5.6
2019-Dec-05 17:15 278 14 gusting 18 5.6
2019-Dec-05 17:10 271 7 gusting 13 5.6
2019-Dec-05 17:05 292 6 gusting 13 5.6
2019-Dec-05 17:00 310 11 gusting 18 5.6
2019-Dec-05 16:55 283 9 gusting 22 5.6
2019-Dec-05 16:50 252 15 gusting 19 5.6
2019-Dec-05 16:45 316 5 gusting 24 5.6
2019-Dec-05 16:40 288 17 gusting 26 5.6
2019-Dec-05 16:35 300 17 gusting 20 6.1
2019-Dec-05 16:30 265 13 gusting 22 6.1
2019-Dec-05 16:25 277 13 gusting 25 6.1
2019-Dec-05 16:20 290 18 gusting 26 6.1
2019-Dec-05 16:15 305 23 gusting 26 6.1
2019-Dec-05 16:10 281 6 gusting 13 5.6
2019-Dec-05 16:05 280 8 gusting 12 5.6
2019-Dec-05 16:00 269 8 gusting 12 5.6
2019-Dec-05 15:55 281 7 gusting 13 5.6
2019-Dec-05 15:50 284 7 gusting 13 5.6
2019-Dec-05 15:45 281 7 gusting 16 5.6
2019-Dec-05 15:40 251 9 gusting 16 5.6
2019-Dec-05 15:35 310 9 gusting 15 5.6
2019-Dec-05 15:30 299 13 gusting 18 6.1
2019-Dec-05 15:25 268 10 gusting 18 6.1
2019-Dec-05 15:20 001 13 gusting 15 6.1
2019-Dec-05 15:15 286 8 gusting 15 6.1
2019-Dec-05 15:10 286 14 gusting 18 5.6
2019-Dec-05 15:05 297 8 gusting 20 5.6
2019-Dec-05 15:00 300 12 gusting 18 5.6
2019-Dec-05 14:55 259 9 gusting 14 5.6
2019-Dec-05 14:50 291 9 gusting 17 5.6
2019-Dec-05 14:45 312 13 gusting 22 5.6
2019-Dec-05 14:40 269 11 gusting 22 5.6
2019-Dec-05 14:35 306 12 gusting 21 6.1
2019-Dec-05 14:30 288 9 gusting 16 6.1
2019-Dec-05 14:25 302 9 gusting 18 6.1
2019-Dec-05 14:20 287 9 gusting 18 6.1
2019-Dec-05 14:15 289 6 gusting 13 6.1
2019-Dec-05 14:10 312 11 gusting 18 5.6
2019-Dec-05 14:05 295 11 gusting 18 5.6
2019-Dec-05 14:00 269 13 gusting 19 5.6
2019-Dec-05 13:55 216 13 gusting 25 5.6
2019-Dec-05 13:50 289 13 gusting 19 5.6
2019-Dec-05 13:45 293 9 gusting 21 5.6
2019-Dec-05 13:40 254 8 gusting 24 5.6
2019-Dec-05 13:35 325 6 gusting 12 5.6
2019-Dec-05 13:30 309 6 gusting 14 5.6
2019-Dec-05 13:25 310 6 gusting 17 5.6
2019-Dec-05 13:20 329 8 gusting 14 5.0
2019-Dec-05 13:15 287 10 gusting 13 5.0
2019-Dec-05 13:10 305 8 gusting 17 5.0
2019-Dec-05 13:05 297 6 gusting 13 5.0
2019-Dec-05 13:00 330 7 gusting 16 5.0
2019-Dec-05 12:55 289 9 gusting 12 5.0
2019-Dec-05 12:50 303 6 gusting 10 5.0
2019-Dec-05 12:45 292 5 gusting 11 5.0
2019-Dec-05 12:40 288 6 gusting 16 5.0
2019-Dec-05 12:35 304 13 gusting 18 4.4
2019-Dec-05 12:30 346 4 gusting 12 4.4
2019-Dec-05 12:25 273 6 gusting 14 4.4
2019-Dec-05 12:20 265 9 gusting 15 4.4
2019-Dec-05 12:15 352 9 gusting 14 4.4
2019-Dec-05 12:10 300 11 gusting 13 4.4
2019-Dec-05 12:05 292 9 gusting 13 4.4
2019-Dec-05 12:00 298 9 gusting 12 4.4
2019-Dec-05 11:55 332 9 gusting 13 4.4
2019-Dec-05 11:50 288 6 gusting 13 4.4
2019-Dec-05 11:45 307 11 gusting 13 4.4
2019-Dec-05 11:40 280 8 gusting 14 4.4
2019-Dec-05 11:35 293 7 gusting 13 4.4
2019-Dec-05 11:30 297 6 gusting 15 4.4
2019-Dec-05 11:25 289 8 gusting 13 4.4
2019-Dec-05 11:20 296 6 gusting 13 3.9
2019-Dec-05 11:15 289 10 gusting 13 3.9
2019-Dec-05 11:10 294 6 gusting 13 3.9
2019-Dec-05 11:05 295 7 gusting 11 4.4
2019-Dec-05 11:00 285 7 gusting 13 4.4
2019-Dec-05 10:55 307 6 gusting 12 3.9
2019-Dec-05 10:50 316 6 gusting 13 4.4
2019-Dec-05 10:45 295 11 gusting 11 4.4
2019-Dec-05 10:40 272 8 gusting 10 4.4
2019-Dec-05 10:35 309 5 gusting 9 4.4
2019-Dec-05 10:30 308 6 gusting 9 4.4
2019-Dec-05 10:25 280 6 gusting 10 4.4
2019-Dec-05 10:20 272 7 gusting 9 4.4
2019-Dec-05 10:15 263 4 gusting 9 4.4
2019-Dec-05 10:10 281 5 gusting 9 4.4
2019-Dec-05 10:05 291 5 gusting 11 4.4
2019-Dec-05 10:00 298 5 gusting 10 4.4
2019-Dec-05 09:55 307 7 gusting 9 3.9
2019-Dec-05 09:50 302 6 gusting 9 4.4
2019-Dec-05 09:45 311 2 gusting 8 4.4
2019-Dec-05 09:40 293 6 gusting 9 4.4
2019-Dec-05 09:35 294 5 gusting 8 3.9
2019-Dec-05 09:30 290 4 gusting 9 4.4
2019-Dec-05 09:25 265 4 gusting 8 3.9
2019-Dec-05 09:20 310 4 gusting 8 3.9
2019-Dec-05 09:15 278 5 gusting 9 3.9
2019-Dec-05 09:10 327 6 gusting 7 3.9
2019-Dec-05 09:05 292 6 gusting 8 3.9
2019-Dec-05 09:00 280 4 gusting 6 4.4
2019-Dec-05 08:55 300 4 gusting 8 4.4
2019-Dec-05 08:50 309 4 gusting 9 4.4
2019-Dec-05 08:45 302 5 gusting 8 4.4
2019-Dec-05 08:40 310 7 gusting 10 3.9
2019-Dec-05 08:35 299 4 gusting 9 3.9
2019-Dec-05 08:30 306 6 gusting 6 3.9
2019-Dec-05 08:25 278 4 gusting 9 3.9
2019-Dec-05 08:20 303 4 gusting 8 3.9
2019-Dec-05 08:15 297 6 gusting 9 3.9
2019-Dec-05 08:10 300 4 gusting 9 3.9
2019-Dec-05 08:05 288 4 gusting 9 3.9
2019-Dec-05 08:00 287 4 gusting 10 3.9
2019-Dec-05 07:55 292 4 gusting 9 3.9
2019-Dec-05 07:50 260 6 gusting 9 3.9
2019-Dec-05 07:45 253 4 gusting 6 3.9
2019-Dec-05 07:40 242 3 gusting 5 3.9
2019-Dec-05 07:35 277 3 gusting 4 3.9
2019-Dec-05 07:30 283 2 gusting 5 3.9
2019-Dec-05 07:25 301 4 gusting 4 3.9
2019-Dec-05 07:20 301 4 gusting 6 3.9
2019-Dec-05 07:15 310 2 gusting 6 3.9
2019-Dec-05 07:10 290 4 gusting 6 3.9
2019-Dec-05 07:05 288 4 gusting 6 3.9
2019-Dec-05 07:00 320 3 gusting 8 3.9
2019-Dec-05 06:55 316 5 gusting 9 3.9
2019-Dec-05 06:50 316 4 gusting 9 3.9
2019-Dec-05 06:45 349 3 gusting 9 3.9
2019-Dec-05 06:40 281 4 gusting 12 3.9
2019-Dec-05 06:35 310 4 gusting 8 3.9
2019-Dec-05 06:30 326 4 gusting 9 3.9
2019-Dec-05 06:25 309 4 gusting 8 3.9
2019-Dec-05 06:20 255 6 gusting 11 3.9
2019-Dec-05 06:15 294 6 gusting 13 3.9
2019-Dec-05 06:10 279 8 gusting 12 3.9
2019-Dec-05 06:05 275 9 gusting 11 3.3
2019-Dec-05 06:00 292 13 gusting 13 2.8
2019-Dec-05 05:55 275 7 gusting 7 2.2
2019-Dec-05 05:50 300 0 gusting 2 1.7
2019-Dec-05 05:45 340 1.1
2019-Dec-05 05:40 324 1.1
2019-Dec-05 05:35 324 1.1
2019-Dec-05 05:30 324 1.7
2019-Dec-05 05:25 324 1.7
2019-Dec-05 05:20 324 1.7
2019-Dec-05 05:15 323 1.7
2019-Dec-05 05:10 325 1.7
2019-Dec-05 05:05 325 2.2
2019-Dec-05 05:00 325 2.2
2019-Dec-05 04:55 325 2.2
2019-Dec-05 04:50 324 2.2
2019-Dec-05 04:45 324 2.8
2019-Dec-05 04:40 324 2.8
2019-Dec-05 04:35 320 2.8
2019-Dec-05 04:30 278 2.8
2019-Dec-05 04:25 289 2.8
2019-Dec-05 04:20 267 2.8
2019-Dec-05 04:15 262 2.8
2019-Dec-05 04:10 269 2.8
2019-Dec-05 04:05 232 2.8
2019-Dec-05 04:00 230 2.8
2019-Dec-05 03:55 242 2.8
2019-Dec-05 03:50 255 2.8
2019-Dec-05 03:45 279 2.8
2019-Dec-05 03:40 303 2.8
2019-Dec-05 03:35 312 3.3
2019-Dec-05 03:30 054 3.3
2019-Dec-05 03:25 005 3.9
2019-Dec-05 03:20 319 3.9
2019-Dec-05 03:15 316 4 gusting 5 3.9
2019-Dec-05 03:10 323 2 gusting 6 3.9
2019-Dec-05 03:05 333 2 gusting 7 3.9
2019-Dec-05 03:00 290 5 gusting 5 3.9
2019-Dec-05 02:55 347 1 gusting 6 3.9
2019-Dec-05 02:50 351 3.9
2019-Dec-05 02:45 321 2 gusting 7 3.3
2019-Dec-05 02:40 342 4 gusting 6 3.3
2019-Dec-05 02:35 320 3 gusting 4 3.3
2019-Dec-05 02:30 280 1 gusting 4 3.3
2019-Dec-05 02:25 008 0 gusting 5 3.9
2019-Dec-05 02:20 013 3 gusting 5 3.9
2019-Dec-05 02:15 326 3.9
2019-Dec-05 02:10 321 1 gusting 4 3.9
2019-Dec-05 02:05 319 3 gusting 4 3.9
2019-Dec-05 02:00 326 1 gusting 4 3.9
2019-Dec-05 01:55 352 3.9
2019-Dec-05 01:50 316 3.9
2019-Dec-05 01:45 323 3.9
2019-Dec-05 01:40 303 3.9
2019-Dec-05 01:35 302 3.9
2019-Dec-05 01:30 282 3.9
2019-Dec-05 01:25 318 3.9
2019-Dec-05 01:20 332 3.9
2019-Dec-05 01:15 324 3.9
2019-Dec-05 01:10 308 3 gusting 6 3.9
2019-Dec-05 01:05 294 5 gusting 6 3.9
2019-Dec-05 01:00 309 1 gusting 5 3.9
2019-Dec-05 00:55 304 2 gusting 5 3.9
2019-Dec-05 00:50 312 4 gusting 6 3.9
2019-Dec-05 00:45 302 2 gusting 6 3.9
2019-Dec-05 00:40 317 3.9
2019-Dec-05 00:35 321 3.9
2019-Dec-05 00:30 351 3.9
2019-Dec-05 00:25 333 3.9
2019-Dec-05 00:20 333 3.9
2019-Dec-05 00:15 352 1 gusting 2 3.9
2019-Dec-05 00:10 336 3.9
2019-Dec-05 00:05 005 3.9
2019-Dec-05 00:00 349 3.9
2019-Dec-04 23:55 008 3.9
2019-Dec-04 23:50 040 4.4
2019-Dec-04 23:45 350 4.4
2019-Dec-04 23:40 043 4.4
2019-Dec-04 23:35 027 4.4
2019-Dec-04 23:30 020 4.4
2019-Dec-04 23:25 015 4.4
2019-Dec-04 23:20 011 4.4
2019-Dec-04 23:15 013 4.4
2019-Dec-04 23:10 332 4.4
2019-Dec-04 23:05 346 4.4
2019-Dec-04 23:00 4.4
2019-Dec-04 22:55 4.4
2019-Dec-04 22:50 5.0
2019-Dec-04 22:45 028 5.0
2019-Dec-04 22:40 346 5.0
2019-Dec-04 22:35 338 5.0
2019-Dec-04 22:30 325 5.0
2019-Dec-04 22:25 323 5.0
2019-Dec-04 22:20 334 5.0
2019-Dec-04 22:15 295 2 gusting 3 5.0
2019-Dec-04 22:10 020 5.0
2019-Dec-04 22:05 352 2 gusting 4 5.0
2019-Dec-04 22:00 332 0 gusting 6 5.0
2019-Dec-04 21:55 339 5.0
2019-Dec-04 21:50 307 5 gusting 9 5.0
2019-Dec-04 21:45 317 4 gusting 11 5.0
2019-Dec-04 21:40 230 9 gusting 9 5.6
2019-Dec-04 21:35 289 6 gusting 10 5.6
2019-Dec-04 21:30 292 6 gusting 11 5.6
2019-Dec-04 21:25 275 5 gusting 13 6.1
2019-Dec-04 21:20 306 6 gusting 7 6.1
2019-Dec-04 21:15 298 6 gusting 12 6.1
2019-Dec-04 21:10 274 9 gusting 10 6.1
2019-Dec-04 21:05 291 4 gusting 6 6.1
2019-Dec-04 21:00 301 3 gusting 6 6.1
2019-Dec-04 20:55 277 4 gusting 9 6.7
2019-Dec-04 20:50 283 4 gusting 6 6.7
2019-Dec-04 20:45 253 6 gusting 6 6.7
2019-Dec-04 20:40 261 2 gusting 6 6.7
2019-Dec-04 20:35 285 4 gusting 7 6.7
2019-Dec-04 20:30 283 3 gusting 8 6.7
2019-Dec-04 20:25 302 4 gusting 7 6.7
2019-Dec-04 20:20 260 2 gusting 8 6.7
2019-Dec-04 20:15 275 4 gusting 7 6.7
2019-Dec-04 20:10 285 6 gusting 9 6.7
2019-Dec-04 20:05 284 5 gusting 8 6.7
2019-Dec-04 20:00 245 7 gusting 10 6.7
2019-Dec-04 19:55 237 4 gusting 9 6.7
2019-Dec-04 19:50 232 2 gusting 9 7.2
2019-Dec-04 19:45 253 5 gusting 9 6.7
2019-Dec-04 19:40 259 4 gusting 9 6.7
2019-Dec-04 19:35 238 6 gusting 10 6.7
2019-Dec-04 19:30 254 4 gusting 10 6.7
2019-Dec-04 19:25 226 6 gusting 9 6.7
2019-Dec-04 19:20 291 5 gusting 8 7.2
2019-Dec-04 19:15 214 6 gusting 9 7.2
2019-Dec-04 19:10 276 4 gusting 12 7.2
2019-Dec-04 19:05 250 5 gusting 10 6.7
2019-Dec-04 19:00 233 9 gusting 9 6.7
2019-Dec-04 18:55 267 2 gusting 11 7.2
2019-Dec-04 18:50 333 5 gusting 13 6.7
2019-Dec-04 18:45 312 9 gusting 12 6.7
2019-Dec-04 18:40 246 8 gusting 11 6.7
2019-Dec-04 18:35 307 8 gusting 13 6.7
2019-Dec-04 18:30 270 8 gusting 11 6.7
2019-Dec-04 18:25 315 7 gusting 11 6.7
2019-Dec-04 18:20 305 7 gusting 11 6.7
2019-Dec-04 18:15 266 10 gusting 15 6.7
2019-Dec-04 18:10 280 16 gusting 16 6.7
2019-Dec-04 18:05 274 10 gusting 13 6.7
2019-Dec-04 18:00 295 6 gusting 13 6.7
2019-Dec-04 17:55 245 8 gusting 14 6.1
2019-Dec-04 17:50 301 7 gusting 13 6.7
2019-Dec-04 17:45 318 6 gusting 11 6.1
2019-Dec-04 17:40 277 8 gusting 9 6.1
2019-Dec-04 17:35 274 7 gusting 9 5.6
2019-Dec-04 17:30 238 5 gusting 11 5.6
2019-Dec-04 17:25 231 7 gusting 9 5.6
2019-Dec-04 17:20 254 5 gusting 9 6.1
2019-Dec-04 17:15 213 7 gusting 11 6.1
2019-Dec-04 17:10 286 7 gusting 13 6.1
2019-Dec-04 17:05 240 11 gusting 13 6.1
2019-Dec-04 17:00 241 7 gusting 13 6.1
2019-Dec-04 16:55 246 9 gusting 13 6.1
2019-Dec-04 16:50 240 4 gusting 10 6.7
2019-Dec-04 16:45 293 7 gusting 10 6.7
2019-Dec-04 16:40 253 6 gusting 12 6.1
2019-Dec-04 16:35 249 8 gusting 11 6.7
2019-Dec-04 16:30 285 6 gusting 13 6.7
2019-Dec-04 16:25 302 6 gusting 13 6.7
2019-Dec-04 16:20 315 9 gusting 17 6.7
2019-Dec-04 16:15 274 13 gusting 16 6.1
2019-Dec-04 16:10 284 10 gusting 13 6.1
2019-Dec-04 16:05 305 8 gusting 18 6.1
2019-Dec-04 16:00 300 6 gusting 13 6.7
2019-Dec-04 15:55 285 6 gusting 11 6.1
2019-Dec-04 15:50 299 6 gusting 13 6.1
2019-Dec-04 15:45 299 6 gusting 13 5.6
2019-Dec-04 15:40 290 8 gusting 12 5.6
2019-Dec-04 15:35 321 10 gusting 13 5.6
2019-Dec-04 15:30 292 9 gusting 9 6.1
2019-Dec-04 15:25 313 8 gusting 11 6.1
2019-Dec-04 15:20 299 6 gusting 10 5.6
2019-Dec-04 15:15 266 4 gusting 9 5.6
2019-Dec-04 15:10 281 9 gusting 10 5.6
2019-Dec-04 15:05 292 4 gusting 9 5.0
2019-Dec-04 15:00 282 4 gusting 8 5.0
2019-Dec-04 14:55 298 4 gusting 9 5.0
2019-Dec-04 14:50 288 3 gusting 5 4.4
2019-Dec-04 14:45 269 4 gusting 6 4.4
2019-Dec-04 14:40 283 3 gusting 6 3.9
2019-Dec-04 14:35 276 3 gusting 6 4.4
2019-Dec-04 14:30 283 2 gusting 6 3.9
2019-Dec-04 14:25 281 1 gusting 6 3.9
2019-Dec-04 14:20 275 4 gusting 6 3.9
2019-Dec-04 14:15 289 5 gusting 7 3.9
2019-Dec-04 14:10 256 4 gusting 4 3.9
2019-Dec-04 14:05 299 4 gusting 6 3.9
2019-Dec-04 14:00 266 3 gusting 6 3.9
2019-Dec-04 13:55 329 2 gusting 5 3.9
2019-Dec-04 13:50 296 2 gusting 5 3.3
2019-Dec-04 13:45 280 3 gusting 6 3.3
2019-Dec-04 13:40 301 4 gusting 5 3.3
2019-Dec-04 13:35 312 4 gusting 6 3.3
2019-Dec-04 13:30 302 4 gusting 6 3.3
2019-Dec-04 13:25 303 5 gusting 5 3.3
2019-Dec-04 13:20 286 4 gusting 5 3.3
2019-Dec-04 13:15 306 3.3
2019-Dec-04 13:10 276 3.3
2019-Dec-04 13:05 256 3.3
2019-Dec-04 13:00 284 3.3
2019-Dec-04 12:55 278 3.3
2019-Dec-04 12:50 286 3.3
2019-Dec-04 12:45 295 3.3
2019-Dec-04 12:40 303 2 gusting 4 3.3
2019-Dec-04 12:35 293 5 gusting 5 3.3
2019-Dec-04 12:30 292 4 gusting 7 3.3
2019-Dec-04 12:25 316 3 gusting 7 3.3
2019-Dec-04 12:20 299 4 gusting 5 3.3
2019-Dec-04 12:15 295 2 gusting 5 3.3
2019-Dec-04 12:10 296 4 gusting 6 3.3
2019-Dec-04 12:05 291 4 gusting 4 3.3
2019-Dec-04 12:00 293 3 gusting 5 3.3
2019-Dec-04 11:55 283 3 gusting 4 3.3
2019-Dec-04 11:50 317 4 gusting 4 3.3
2019-Dec-04 11:45 295 4 gusting 6 3.3
2019-Dec-04 11:40 309 4 gusting 6 3.3
2019-Dec-04 11:35 275 5 gusting 6 3.3
2019-Dec-04 11:30 283 3 gusting 6 3.3
2019-Dec-04 11:25 299 1 gusting 4 3.3
2019-Dec-04 11:20 303 2 gusting 5 3.3
2019-Dec-04 11:15 270 3 gusting 4 3.3
2019-Dec-04 11:10 293 2 gusting 4 3.3
2019-Dec-04 11:05 297 2 gusting 4 3.3
2019-Dec-04 11:00 311 2 gusting 4 3.3
2019-Dec-04 10:55 279 4 gusting 6 3.3
2019-Dec-04 10:50 294 4 gusting 6 2.8
2019-Dec-04 10:45 284 0 gusting 2 2.8
2019-Dec-04 10:40 291 2.8
2019-Dec-04 10:35 307 2.2
2019-Dec-04 10:30 352 2.2
2019-Dec-04 10:25 320 1.7
2019-Dec-04 10:20 037 1.1
2019-Dec-04 10:15 037 1.1
2019-Dec-04 10:10 348 1.1
2019-Dec-04 10:05 001 0.6
2019-Dec-04 10:00 345 0.6
2019-Dec-04 09:55 345 0.6
2019-Dec-04 09:50 345 0.6
2019-Dec-04 09:45 345 0.6
2019-Dec-04 09:40 345 0.6
2019-Dec-04 09:35 076 0.6
2019-Dec-04 09:30 081 0.6
2019-Dec-04 09:25 081 0.6
2019-Dec-04 09:20 327 0.6
2019-Dec-04 09:15 327 0.6
2019-Dec-04 09:10 327 0.6
2019-Dec-04 09:05 327 0.6
2019-Dec-04 09:00 327 0.6
2019-Dec-04 08:55 327 0.6
2019-Dec-04 08:50 053 0.6
2019-Dec-04 08:45 053 0.6
2019-Dec-04 08:40 343 0.6
2019-Dec-04 08:35 342 0.6
2019-Dec-04 08:30 342 0.6
2019-Dec-04 08:25 347 0.6
2019-Dec-04 08:20 347 1.1
2019-Dec-04 08:15 347 1.1
2019-Dec-04 08:10 124 1.1
2019-Dec-04 08:05 124 1.1
2019-Dec-04 08:00 155 1.1
2019-Dec-04 07:55 154 1.7
2019-Dec-04 07:50 154 1.7
2019-Dec-04 07:45 138 1.7
2019-Dec-04 07:40 187 1.1
2019-Dec-04 07:35 215 1.1
2019-Dec-04 07:30 232 1.7
2019-Dec-04 07:25 192 1.7
2019-Dec-04 07:20 191 1.7
2019-Dec-04 07:15 191 1.7
2019-Dec-04 07:10 191 1.7
2019-Dec-04 07:05 191 1.7
2019-Dec-04 07:00 191 1.7
2019-Dec-04 06:55 191 1.7
2019-Dec-04 06:50 191 2.2
2019-Dec-04 06:45 192 2.2
2019-Dec-04 06:40 001 2.2
2019-Dec-04 06:35 001 2.2
2019-Dec-04 06:30 001 2.2
2019-Dec-04 06:25 001 2.2
2019-Dec-04 06:20 334 2.2
2019-Dec-04 06:15 295 2.2
2019-Dec-04 06:10 335 2.2
2019-Dec-04 06:05 2.2
2019-Dec-04 06:00 352 2.2
2019-Dec-04 05:55 010 1 gusting 6 2.2
2019-Dec-04 05:50 318 1 gusting 4 2.2
2019-Dec-04 05:45 332 3 gusting 4 2.2
2019-Dec-04 05:40 312 2.2
2019-Dec-04 05:35 336 2 gusting 4 2.2
2019-Dec-04 05:30 321 4 gusting 5 2.2
2019-Dec-04 05:25 303 1.7
2019-Dec-04 05:20 314 1.7
2019-Dec-04 05:15 303 1.7
2019-Dec-04 05:10 313 1.7
2019-Dec-04 05:05 030 1.7
2019-Dec-04 05:00 292 1.7
2019-Dec-04 04:55 299 1 gusting 3 1.7
2019-Dec-04 04:50 309 2 gusting 4 2.2
2019-Dec-04 04:45 264 1 gusting 4 2.2
2019-Dec-04 04:40 244 2 gusting 5 2.2
2019-Dec-04 04:35 271 4 gusting 5 2.2
2019-Dec-04 04:30 291 1 gusting 3 2.2
2019-Dec-04 04:25 233 1.7
2019-Dec-04 04:20 239 1.7
2019-Dec-04 04:15 269 2.2
2019-Dec-04 04:10 300 2.2
2019-Dec-04 04:05 318 2.2
2019-Dec-04 04:00 310 1.7
2019-Dec-04 03:55 271 4 gusting 4 2.2
2019-Dec-04 03:50 255 2.2
2019-Dec-04 03:45 348 2.2
2019-Dec-04 03:40 318 2.2
2019-Dec-04 03:35 248 2.2
2019-Dec-04 03:30 295 0 gusting 4 2.2
2019-Dec-04 03:25 321 1 gusting 5 2.2
2019-Dec-04 03:20 321 2.2
2019-Dec-04 03:15 285 2.2
2019-Dec-04 03:10 347 2.2
2019-Dec-04 03:05 314 3 gusting 4 2.2
2019-Dec-04 03:00 324 2.2
2019-Dec-04 02:55 335 2.2
2019-Dec-04 02:50 340 2.2
2019-Dec-04 02:45 352 1 gusting 4 2.2
2019-Dec-04 02:40 331 1 gusting 4 2.2
2019-Dec-04 02:35 324 2 gusting 4 2.2
2019-Dec-04 02:30 307 4 gusting 6 2.2
2019-Dec-04 02:25 318 4 gusting 6 2.8
2019-Dec-04 02:20 318 4 gusting 7 2.8
2019-Dec-04 02:15 305 5 gusting 8 2.8
2019-Dec-04 02:10 301 4 gusting 10 2.8
2019-Dec-04 02:05 314 6 gusting 8 2.8
2019-Dec-04 02:00 293 4 gusting 9 2.8
2019-Dec-04 01:55 320 6 gusting 7 2.8
2019-Dec-04 01:50 300 3 gusting 8 2.8
2019-Dec-04 01:45 320 6 gusting 8 2.8
2019-Dec-04 01:40 305 6 gusting 8 2.8
2019-Dec-04 01:35 302 3 gusting 7 2.8
2019-Dec-04 01:30 310 1 gusting 6 2.8
2019-Dec-04 01:25 003 1 gusting 6 2.8
2019-Dec-04 01:20 311 2.8
2019-Dec-04 01:15 299 4 gusting 7 2.8
2019-Dec-04 01:10 346 3 gusting 8 2.8
2019-Dec-04 01:05 336 2 gusting 8 3.3
2019-Dec-04 01:00 342 2 gusting 9 3.3
2019-Dec-04 00:55 344 4 gusting 12 3.3
2019-Dec-04 00:50 321 6 gusting 11 3.3
2019-Dec-04 00:45 299 8 gusting 11 3.3
2019-Dec-04 00:40 334 6 gusting 9 3.3
2019-Dec-04 00:35 305 4 gusting 6 2.8
2019-Dec-04 00:30 321 4 gusting 7 3.3
2019-Dec-04 00:25 336 5 gusting 8 2.8
2019-Dec-04 00:20 321 4 gusting 6 2.8
2019-Dec-04 00:15 316 2 gusting 5 2.8
2019-Dec-04 00:10 011 1 gusting 4 2.8
2019-Dec-04 00:05 317 2.8
2019-Dec-04 00:00 293 3.3
2019-Dec-03 23:55 337 4 gusting 4 3.3
2019-Dec-03 23:50 010 3.3
2019-Dec-03 23:45 308 3.3
2019-Dec-03 23:40 335 2 gusting 4 3.3
2019-Dec-03 23:35 313 3.3
2019-Dec-03 23:30 323 4 gusting 6 3.3
2019-Dec-03 23:25 317 4 gusting 7 3.3
2019-Dec-03 23:20 291 4 gusting 6 3.3
2019-Dec-03 23:15 326 3 gusting 5 3.3
2019-Dec-03 23:10 336 3 gusting 6 3.3
2019-Dec-03 23:05 315 3.3
2019-Dec-03 23:00 295 3.9
2019-Dec-03 22:55 334 3.9
2019-Dec-03 22:50 296 3 gusting 7 3.9
2019-Dec-03 22:45 352 3 gusting 10 3.9
2019-Dec-03 22:40 315 5 gusting 9 3.9
2019-Dec-03 22:35 318 4 gusting 7 4.4
2019-Dec-03 22:30 287 8 gusting 9 4.4
2019-Dec-03 22:25 306 6 gusting 9 4.4
2019-Dec-03 22:20 332 2 gusting 9 4.4
2019-Dec-03 22:15 293 5 gusting 9 4.4
2019-Dec-03 22:10 296 4 gusting 9 4.4
2019-Dec-03 22:05 310 6 gusting 9 4.4
2019-Dec-03 22:00 301 5 gusting 9 4.4
2019-Dec-03 21:55 330 2 gusting 10 5.0
2019-Dec-03 21:50 350 6 gusting 7 5.0
2019-Dec-03 21:45 324 4 gusting 8 5.0
2019-Dec-03 21:40 326 7 gusting 9 5.0
2019-Dec-03 21:35 301 4 gusting 11 5.0
2019-Dec-03 21:30 347 5 gusting 9 5.0
2019-Dec-03 21:25 308 9 gusting 13 5.6
2019-Dec-03 21:20 299 9 gusting 13 5.6
2019-Dec-03 21:15 294 9 gusting 17 5.6
2019-Dec-03 21:10 298 9 gusting 17 5.6
2019-Dec-03 21:05 299 15 gusting 22 6.1
2019-Dec-03 21:00 310 7 gusting 17 6.1
2019-Dec-03 20:55 274 7 gusting 19 6.1
2019-Dec-03 20:50 009 6 gusting 18 6.1
2019-Dec-03 20:45 274 9 gusting 13 6.1
2019-Dec-03 20:40 293 6 gusting 18 6.1
2019-Dec-03 20:35 279 10 gusting 15 6.1
2019-Dec-03 20:30 298 8 gusting 19 6.1
2019-Dec-03 20:25 286 17 gusting 26 6.1
2019-Dec-03 20:20 327 13 gusting 19 6.1
2019-Dec-03 20:15 285 11 gusting 23 6.7
2019-Dec-03 20:10 299 12 gusting 18 6.7
2019-Dec-03 20:05 294 6 gusting 17 6.7
2019-Dec-03 20:00 306 8 gusting 19 6.7